EN

Hourly Weather Lábatlan

Today, 25 July, Sunday

Time Temperature Precipitation Wind Pressure Humidity
00:00 +20°C° 0 mm 3 mps 742 mmHg 56%
01:00 +20°C° 0 mm 3 mps 742 mmHg 58%
02:00 +20°C° 0.1 mm 2 mps 742 mmHg 60%
03:00 +19°C° 0.1 mm 2 mps 742 mmHg 63%
04:00 +19°C° 0.1 mm 2 mps 742 mmHg 65%
05:00 +19°C° 0.2 mm 2 mps 742 mmHg 68%
06:00 +19°C° 0.2 mm 2 mps 742 mmHg 70%
07:00 +19°C° 0 mm 3 mps 742 mmHg 74%
08:00 +22°C° 0 mm 4 mps 742 mmHg 64%
09:00 +25°C° 0 mm 5 mps 742 mmHg 54%
10:00 +28°C° 0 mm 6 mps 742 mmHg 44%
11:00 +30°C° 0 mm 5 mps 741 mmHg 40%
12:00 +33°C° 0 mm 5 mps 741 mmHg 36%
13:00 +35°C° 0 mm 4 mps 740 mmHg 32%
14:00 +35°C° 0.1 mm 4 mps 740 mmHg 34%
15:00 +35°C° 0.1 mm 4 mps 740 mmHg 36%
16:00 +34°C° 0.1 mm 3 mps 739 mmHg 38%
17:00 +32°C° 0.3 mm 4 mps 739 mmHg 44%
18:00 +29°C° 0.3 mm 4 mps 738 mmHg 51%
19:00 +27°C° 0.3 mm 4 mps 738 mmHg 58%
20:00 +25°C° 1.4 mm 4 mps 739 mmHg 68%
21:00 +22°C° 1.4 mm 4 mps 739 mmHg 79%
22:00 +20°C° 1.4 mm 4 mps 740 mmHg 89%
23:00 +20°C° 0.3 mm 4 mps 740 mmHg 90%

Tomorrow, 26 July, Monday

Time Temperature Precipitation Wind Pressure Humidity
00:00 +20°C° 0.3 mm 4 mps 740 mmHg 91%
01:00 +19°C° 0.3 mm 3 mps 740 mmHg 91%
02:00 +19°C° 0 mm 3 mps 740 mmHg 92%
03:00 +19°C° 0 mm 3 mps 740 mmHg 93%
04:00 +19°C° 0 mm 2 mps 740 mmHg 94%
05:00 +20°C° 0 mm 2 mps 741 mmHg 89%
06:00 +21°C° 0 mm 2 mps 741 mmHg 84%
07:00 +23°C° 0 mm 1 mps 741 mmHg 79%
08:00 +25°C° 0 mm 1 mps 742 mmHg 71%
09:00 +27°C° 0 mm 1 mps 742 mmHg 63%
10:00 +28°C° 0 mm 1 mps 742 mmHg 54%
11:00 +30°C° 0 mm 2 mps 742 mmHg 49%
12:00 +32°C° 0 mm 2 mps 742 mmHg 44%
13:00 +34°C° 0 mm 2 mps 741 mmHg 38%
14:00 +35°C° 0 mm 2 mps 741 mmHg 36%
15:00 +36°C° 0 mm 3 mps 741 mmHg 33%
16:00 +36°C° 0 mm 3 mps 741 mmHg 31%
17:00 +34°C° 0.1 mm 3 mps 740 mmHg 39%
18:00 +30°C° 0.1 mm 3 mps 740 mmHg 47%
19:00 +28°C° 0.1 mm 3 mps 740 mmHg 55%
20:00 +27°C° 0 mm 3 mps 740 mmHg 57%
21:00 +26°C° 0 mm 3 mps 741 mmHg 60%
22:00 +25°C° 0 mm 3 mps 741 mmHg 63%
23:00 +24°C° 0 mm 3 mps 741 mmHg 65%

Day after tomorrow, 27 July, Tuesday

Time Temperature Precipitation Wind Pressure Humidity
00:00 +24°C° 0 mm 3 mps 741 mmHg 67%
01:00 +22°C° 0 mm 3 mps 742 mmHg 69%
02:00 +21°C° 0 mm 3 mps 742 mmHg 76%
03:00 +20°C° 0 mm 2 mps 742 mmHg 84%
04:00 +19°C° 0 mm 2 mps 742 mmHg 91%
05:00 +21°C° 0 mm 2 mps 743 mmHg 85%
06:00 +22°C° 0 mm 3 mps 743 mmHg 79%
07:00 +24°C° 0 mm 3 mps 744 mmHg 73%
08:00 +26°C° 0 mm 3 mps 744 mmHg 65%
09:00 +28°C° 0 mm 3 mps 744 mmHg 57%
10:00 +29°C° 0 mm 3 mps 744 mmHg 49%
11:00 +31°C° 0 mm 3 mps 744 mmHg 43%
12:00 +33°C° 0 mm 3 mps 744 mmHg 38%
13:00 +34°C° 0 mm 3 mps 744 mmHg 33%
14:00 +34°C° 0 mm 3 mps 743 mmHg 32%
15:00 +35°C° 0 mm 3 mps 743 mmHg 31%
16:00 +35°C° 0 mm 3 mps 743 mmHg 30%
17:00 +33°C° 0 mm 3 mps 743 mmHg 36%
18:00 +30°C° 0 mm 2 mps 743 mmHg 42%
19:00 +28°C° 0 mm 2 mps 742 mmHg 48%
20:00 +26°C° 0.2 mm 2 mps 743 mmHg 55%
21:00 +25°C° 0.2 mm 2 mps 743 mmHg 62%
22:00 +23°C° 0.2 mm 2 mps 743 mmHg 70%
23:00 +23°C° 0 mm 2 mps 743 mmHg 70%

28 July, Wednesday

Time Temperature Precipitation Wind Pressure Humidity
00:00 +23°C° 0 mm 2 mps 743 mmHg 70%
01:00 +21°C° 0 mm 2 mps 743 mmHg 70%
02:00 +21°C° 0 mm 2 mps 742 mmHg 71%
03:00 +21°C° 0 mm 2 mps 742 mmHg 72%
04:00 +20°C° 0 mm 2 mps 742 mmHg 73%
05:00 +23°C° 0 mm 1 mps 742 mmHg 69%
06:00 +24°C° 0 mm 1 mps 743 mmHg 64%
07:00 +26°C° 0 mm 1 mps 743 mmHg 60%
08:00 +28°C° 0 mm 2 mps 743 mmHg 53%
09:00 +30°C° 0 mm 2 mps 742 mmHg 46%
10:00 +33°C° 0 mm 3 mps 742 mmHg 39%
11:00 +35°C° 0 mm 4 mps 742 mmHg 34%
12:00 +36°C° 0 mm 4 mps 742 mmHg 30%
13:00 +39°C° 0 mm 5 mps 741 mmHg 25%
14:00 +39°C° 0 mm 5 mps 741 mmHg 23%
15:00 +40°C° 0 mm 6 mps 740 mmHg 22%
16:00 +40°C° 0 mm 6 mps 740 mmHg 20%
17:00 +37°C° 0 mm 5 mps 740 mmHg 26%
18:00 +35°C° 0 mm 4 mps 740 mmHg 32%
19:00 +31°C° 0 mm 3 mps 740 mmHg 38%
20:00 +28°C° 0 mm 4 mps 741 mmHg 51%
21:00 +25°C° 0 mm 5 mps 742 mmHg 64%
22:00 +21°C° 0 mm 5 mps 743 mmHg 78%
23:00 +21°C° 0 mm 5 mps 743 mmHg 81%

29 July, Thursday

Time Temperature Precipitation Wind Pressure Humidity
00:00 +20°C° 0 mm 5 mps 743 mmHg 84%
01:00 +19°C° 0 mm 5 mps 743 mmHg 87%
02:00 +18°C° 0 mm 4 mps 743 mmHg 88%
03:00 +18°C° 0 mm 4 mps 743 mmHg 90%
04:00 +17°C° 0 mm 3 mps 743 mmHg 92%
05:00 +19°C° 0 mm 3 mps 744 mmHg 84%
06:00 +20°C° 0 mm 4 mps 744 mmHg 76%
07:00 +22°C° 0 mm 4 mps 744 mmHg 68%
08:00 +25°C° 0 mm 4 mps 744 mmHg 58%
09:00 +27°C° 0 mm 4 mps 744 mmHg 48%
10:00 +30°C° 0 mm 4 mps 745 mmHg 39%
11:00 +32°C° 0 mm 4 mps 744 mmHg 34%
12:00 +33°C° 0 mm 4 mps 744 mmHg 30%
13:00 +35°C° 0 mm 3 mps 744 mmHg 25%
14:00 +35°C° 0 mm 3 mps 743 mmHg 25%
15:00 +35°C° 0 mm 3 mps 743 mmHg 25%
16:00 +36°C° 0 mm 2 mps 743 mmHg 24%
17:00 +34°C° 0 mm 2 mps 742 mmHg 29%
18:00 +31°C° 0 mm 2 mps 742 mmHg 34%
19:00 +29°C° 0 mm 2 mps 742 mmHg 39%
20:00 +28°C° 0 mm 2 mps 742 mmHg 41%
21:00 +26°C° 0 mm 2 mps 742 mmHg 44%
22:00 +25°C° 0 mm 2 mps 742 mmHg 47%
23:00 +25°C° 0 mm 2 mps 742 mmHg 47%

30 July, Friday

Time Temperature Precipitation Wind Pressure Humidity
00:00 +24°C° 0 mm 2 mps 741 mmHg 48%
01:00 +24°C° 0 mm 2 mps 741 mmHg 48%
02:00 +24°C° 0 mm 2 mps 741 mmHg 50%
03:00 +23°C° 0 mm 2 mps 741 mmHg 52%
04:00 +23°C° 0 mm 2 mps 741 mmHg 54%
05:00 +24°C° 0 mm 3 mps 741 mmHg 53%
06:00 +25°C° 0 mm 3 mps 741 mmHg 51%
07:00 +27°C° 0 mm 3 mps 741 mmHg 50%
08:00 +29°C° 0 mm 3 mps 741 mmHg 45%
09:00 +31°C° 0 mm 3 mps 741 mmHg 40%
10:00 +34°C° 0 mm 3 mps 741 mmHg 35%
11:00 +35°C° 0 mm 3 mps 740 mmHg 31%
12:00 +37°C° 0 mm 3 mps 740 mmHg 28%
13:00 +38°C° 0 mm 3 mps 739 mmHg 24%
14:00 +38°C° 0 mm 3 mps 739 mmHg 25%
15:00 +38°C° 0 mm 3 mps 738 mmHg 26%
16:00 +37°C° 0 mm 3 mps 738 mmHg 27%
17:00 +35°C° 0 mm 4 mps 738 mmHg 34%
18:00 +33°C° 0 mm 5 mps 738 mmHg 41%
19:00 +30°C° 0 mm 7 mps 738 mmHg 48%
20:00 +27°C° 0.4 mm 6 mps 739 mmHg 61%
21:00 +24°C° 0.4 mm 6 mps 739 mmHg 75%
22:00 +21°C° 0.4 mm 6 mps 739 mmHg 88%
23:00 +21°C° 0.1 mm 5 mps 739 mmHg 90%
Show more